{"data":{"norad_id":43575,"intl_designator":"2018-061G","name":"IRIDIUM 163","alt_names":[],"object_type":"PAYLOAD","status":"ACTIVE","operator":null,"country":"US","launch_date":"2018-07-25","launch_site_code":"AFWTR","launch_vehicle":null,"mission":null,"orbit_class":"UNKNOWN","rcs_meters":null,"size_class":null,"mass_kg":null,"dimensions":null,"purposes":["comms"],"wikipedia_slug":null,"has_3d_model":false,"image_url":null,"decayed_at":null,"tle_current":{"epoch":"2026-09-20T00:40:18.502752Z","epoch_age_seconds":56192,"freshness":"FRESH","line1":"1 43575U 18061G   26263.02799193  .00000143  00000+0  44170-4 0  9996","line2":"2 43575  86.4009  17.0577 0002183  94.8112 265.3333 14.34217868426976","mean_motion":14.34217868,"eccentricity":0.0002183,"inclination_deg":86.4009,"raan_deg":17.0577,"arg_perigee_deg":94.8112,"mean_anomaly_deg":265.3333,"bstar":4.417e-5,"rev_number":42697,"period_min":100.40315576378,"perigee_km":776.10464989732,"apogee_km":779.22887381975,"semimajor_km":7155.8037618585,"source":"CELESTRAK","updated_at":"2026-09-20T09:00:36.354093Z"}}}